Regional Weather Roundup
Issued by NWS

Home | Current Version | Previous Version | Text Only | Print | Product List | Glossary On
Versions: 1 2 3 4 5 6 7 8 9 10 11 12 13 14 15 16 17 18 19 20 21 22 23 24 25 26 27 28 29 30 31 32 33 34 35 36 37 38 39 40 41 42 43 44 45 46 47 48 49 50
000
ASUS43 KDTX 220601
RWRMI
MICHIGAN HOURLY REGIONAL WEATHER ROUNDUP
NATIONAL WEATHER SERVICE DETROIT/PONTIAC MI
200 AM EDT MON SEP 22 2014

NOTE: "FAIR" INDICATES FEW OR NO CLOUDS BELOW 12,000 FEET WITH NO
SIGNIFICANT WEATHER AND/OR OBSTRUCTION TO VISIBILITY.

MIZ047>049-052>055-059>063-066>070-074>076-081>083-220700-
SOUTHEAST LOWER MICHIGAN

CITY           SKY/WX    TMP DP  RH WIND       PRES   REMARKS
ADRIAN         CLOUDY    48  39  71 N10       30.08R
6HR MIN TEMP:  48; 6HR MAX TEMP:  55; 6HR PCP: TRACE;

ALMA           CLOUDY    47  40  75 NW5       30.10R
ANN ARBOR      CLOUDY    48  38  68 NW10      30.05S
BAD AXE        CLOUDY    48  43  81 NW12      30.01R
6HR MIN TEMP:  48; 6HR MAX TEMP:  51;

CARO           CLOUDY    48  41  76 NW8       30.04R
DETROIT CITY   CLOUDY    52  40  63 NW8G17    30.04R
6HR MIN TEMP:  52; 6HR MAX TEMP:  57;

DETROIT        CLOUDY    49  40  71 NW12      30.05R
6HR MIN TEMP:  49; 6HR MAX TEMP:  54; 6HR PCP: TRACE;

FLINT          CLOUDY    49  38  65 NW12      30.07R
6HR MIN TEMP:  49; 6HR MAX TEMP:  53;

GROSSE ILE     CLOUDY    52  45  76 NW9       30.03R
HILLSDALE      CLOUDY    48  41  77 N7        30.09R
HOWELL         CLOUDY    46  38  75 NW9       30.06S
6HR MIN TEMP:  46; 6HR MAX TEMP:  51;


CITY           SKY/WX    TMP DP  RH WIND       PRES   REMARKS
JACKSON        CLOUDY    46  39  76 VRB7      30.08S
6HR MIN TEMP:  46; 6HR MAX TEMP:  53; 6HR PCP: TRACE;

LAMBERTVILLE   CLOUDY    50  43  76 NW12      30.07R
LANSING        CLOUDY    47  38  71 N7        30.10R
6HR MIN TEMP:  47; 6HR MAX TEMP:  54;

LAPEER         CLOUDY    46  41  80 NW8       30.04R
MASON          CLOUDY    47  38  73 N12       30.08S
MONROE         CLOUDY    48  43  81 NW8       30.04R
MT. CLEMENS    CLOUDY    49  42  76 W13       30.00R
6HR MIN TEMP:  49; 6HR MAX TEMP:  53; 6HR PCP:  0.01;

PONTIAC        CLOUDY    47  39  74 NW12      30.03S
6HR MIN TEMP:  47; 6HR MAX TEMP:  52; 6HR PCP:  0.01;

PORT HOPE        N/A     52  41  66 NW9       29.98R
6HR MIN TEMP:  52; 6HR MAX TEMP:  53;

PORT HURON     CLOUDY    48  43  81 NW9       30.00R
TRI CITIES     CLOUDY    49  38  65 NW12      30.08R
6HR MIN TEMP:  49; 6HR MAX TEMP:  53;

TROY           CLOUDY    50  40  69 NW8       30.05S
SAGINAW HB     CLOUDY    48  37  66 NW10      30.06R
$$
MIZ043>046-050>051-056>058-064>065-071>073-077>080-220700-
SOUTHWEST LOWER MICHIGAN

CITY           SKY/WX    TMP DP  RH WIND       PRES   REMARKS
BATTLE CREEK   CLOUDY    47  36  65 N14G23    30.11R
6HR MIN TEMP:  47; 6HR MAX TEMP:  56;

BENTON HARBOR  CLOUDY    49  42  77 E6        30.13R
6HR MIN TEMP:  49; 6HR MAX TEMP:  55;

BIG RAPIDS     CLOUDY    46  42  86 NW6       30.10S
6HR MIN TEMP:  46; 6HR MAX TEMP:  47;

COLDWATER      CLOUDY    48  39  71 N12       30.10R
6HR MIN TEMP:  48; 6HR MAX TEMP:  57;

FREMONT        CLOUDY    46  37  71 N6        30.12S
6HR MIN TEMP:  46; 6HR MAX TEMP:  48;

HOLLAND        CLOUDY    49  40  71 N6        30.15R
6HR MIN TEMP:  48; 6HR MAX TEMP:  53;

GRAND RAPIDS   CLOUDY    48  39  71 NW10      30.13R
6HR MIN TEMP:  48; 6HR MAX TEMP:  52;

IONIA          CLOUDY    47  41  77 NW6       30.10R
KALAMAZOO      CLOUDY    47  38  71 N10       30.12R
6HR MIN TEMP:  45; 6HR MAX TEMP:  55;

LUDINGTON      CLOUDY    49  43  78 N7        30.14R
6HR MIN TEMP:  47; 6HR MAX TEMP:  49;

MARSHALL       CLOUDY    46  37  72 NW3       30.10R
MOUNT PLEASANT CLOUDY    47  40  75 CALM      30.09R
6HR MIN TEMP:  47; 6HR MAX TEMP:  49;

MUSKEGON       CLOUDY    49  38  65 N6        30.14R
6HR MIN TEMP:  47; 6HR MAX TEMP:  51;

SOUTH HAVEN    CLOUDY    49  42  75 NE6       30.14R
$$
MIZ016>042-220700-
NORTHERN LOWER MICHIGAN

CITY           SKY/WX    TMP DP  RH WIND       PRES   REMARKS
ALPENA         CLOUDY    47  39  74 NW7       30.02S
6HR MIN TEMP:  47; 6HR MAX TEMP:  49;

BEAVER ISLAND  PTCLDY    46  39  78 N7        30.10R
6HR MIN TEMP:  46; 6HR MAX TEMP:  48;

BELLAIRE       CLOUDY    48  41  77 CALM      30.08F
6HR MIN TEMP:  48; 6HR MAX TEMP:  48;

CADILLAC       CLOUDY    44  40  86 NW8       30.08S
CHARLEVOIX     CLOUDY    49  41  73 N12       30.11S
6HR MIN TEMP:  49; 6HR MAX TEMP:  50;

FRANKFORT      CLEAR     49  39  68 N9        30.12S
GAYLORD        CLOUDY    44  39  82 VRB7      30.05S
6HR MIN TEMP:  44; 6HR MAX TEMP:  45;

GRAYLING       CLOUDY    46  41  81 NW7       30.07S
HARBOR SPRINGS MOCLDY    46  39  77 NW3       30.07S
HOUGHTON LAKE  CLOUDY    45  40  82 NW8       30.07R
6HR MIN TEMP:  45; 6HR MAX TEMP:  47;

MANISTEE       CLOUDY    48  37  66 N8        30.13R
OSCODA         CLOUDY    46  42  85 W6        30.02R
PELLSTON       CLOUDY    47  38  71 N12       30.08R
6HR MIN TEMP:  47; 6HR MAX TEMP:  49;

ROGERS CITY    CLOUDY    48  38  70 N9G17     30.04S
TRAVERSE CITY  CLOUDY    50  39  66 NW12      30.09S
6HR MIN TEMP:  49; 6HR MAX TEMP:  50;

$$
MIZ007>008-015-220700-
EASTERN UPPER MICHIGAN

CITY           SKY/WX    TMP DP  RH WIND       PRES   REMARKS
KINROSS        CLOUDY    45  37  76 N6        30.06R
6HR MIN TEMP:  45; 6HR MAX TEMP:  48;

MACKINAC ISLAN CLOUDY    46  37  71 N13G21    30.06R
6HR MIN TEMP:  46; 6HR MAX TEMP:  48;

NEWBERRY       CLOUDY    41  38  88 W5        30.08S
S. S. MARIE    CLOUDY    45  35  68 NW7       30.05S
6HR MIN TEMP:  45; 6HR MAX TEMP:  49;

$$
MIZ004>006-011>014-085-220700-
CENTRAL UPPER MICHIGAN

CITY           SKY/WX    TMP DP  RH WIND       PRES   REMARKS
MANISTIQUE     PTCLDY    37  35  94 NW5       30.11S WCI  33
ESCANABA       PTCLDY    39  36  87 N3        30.14S
6HR MIN TEMP:  39; 6HR MAX TEMP:  46;

MENOMINEE      CLEAR     37  36  93 CALM      30.15S
6HR MIN TEMP:  37; 6HR MAX TEMP:  48;

SAWYER-GWINN   CLEAR     36  34  93 CALM      30.13S
$$
MIZ001>003-009>011-084-220700-
WESTERN UPPER MICHIGAN

CITY           SKY/WX    TMP DP  RH WIND       PRES   REMARKS
IRON MOUNTAIN  CLEAR     35  33  92 CALM      30.13F
6HR MIN TEMP:  34; 6HR MAX TEMP:  46;

HOUGHTON       CLEAR     38  35  89 CALM      30.12S
6HR MIN TEMP:  34; 6HR MAX TEMP:  43;

COPPER HARBOR    N/A     40  36  86 W5        30.11F
6HR MIN TEMP:  40; 6HR MAX TEMP:  46;

IRONWOOD       CLEAR     39  37  93 CALM      30.15S
6HR MIN TEMP:  37; 6HR MAX TEMP:  48;

$$

ABBREVIATIONS USED IN REMARKS
   TC - TEMPERATURE IN CELSIUS
  WCI - WIND CHILL INDEX
   HX - HEAT INDEX
  VSB - VISIBILITY




USA.gov is the U.S. government's official web portal to all federal, state and local government web resources and services.